M I D A S
Marine Information and Data Acquisition System
Tripno 850 of the Zeeleeuw from 2005-02-23 07:26:07 to 2005-02-23 14:39:23
Back to CruiseResearch ActivitiesStationsMapUnderway DataData graphs

EquipmentUnitsComments
TimeDGPSUTC
LatitudeDGPSDM.mWGS84
LongitudeDGPSDM.mWGS84
SpeedMeteo Stationm/sRelative wind speed
DirectionMeteo StationdegRelative wind direction
TemperatureMeteo Stationdeg CelciusAir temperature
PressureMeteo StationPaAtmospheric pressure
HumidityMeteo Station%Relative humidity
Missing or incorrect values are displayed as -999
Metereological data collected by the RV Zeeleeuw from 2005-02-23 07:27:59 to 2005-02-23 14:45:50
Time Latitude Longitude Speed Direction Temperature Pressure Humidity
2005-02-23 07:29 51°13.616 2°56.028 1.9 345 -0.7 101170 77
2005-02-23 07:30 51°13.599 2°56.057 3.2 350 -0.7 101160 77
2005-02-23 07:31 51°13.549 2°56.133 3.9 341 -0.7 101160 77
2005-02-23 07:32 51°13.53 2°56.217 5.5 23 -0.7 101160 77
2005-02-23 07:33 51°13.541 2°56.237 1.8 48 -0.7 101170 77
2005-02-23 07:34 51°13.54 2°56.221 2.5 75 -0.7 101170 77
2005-02-23 07:35 51°13.529 2°56.229 3.5 149 -0.6 101170 78
2005-02-23 07:36 51°13.542 2°56.185 1.1 123 -0.7 101170 77
2005-02-23 07:37 51°13.593 2°56.049 1.4 69 -0.7 101160 77
2005-02-23 07:38 51°13.656 2°55.905 1.8 72 -0.7 101160 77
2005-02-23 07:39 51°13.715 2°55.774 2.7 52 -0.7 101170 77
2005-02-23 07:40 51°13.818 2°55.639 4 36 -0.7 101170 76
2005-02-23 07:41 51°13.954 2°55.536 5.3 33 -0.7 101170 76
2005-02-23 07:42 51°14.106 2°55.435 4.3 32 -0.8 101160 76
2005-02-23 07:43 51°14.239 2°55.295 3.8 40 -0.8 101160 76
2005-02-23 07:44 51°14.348 2°55.079 3.8 34 -0.8 101160 76
2005-02-23 07:45 51°14.449 2°54.807 4.6 38 -0.8 101150 77
2005-02-23 07:46 51°14.54 2°54.476 4 26 -0.7 101140 77
2005-02-23 07:47 51°14.656 2°54.159 2.6 33 -0.7 101150 76
2005-02-23 07:48 51°14.809 2°53.896 4.9 53 -0.7 101150 75
2005-02-23 07:49 51°14.959 2°53.635 7 56 -0.6 101150 75
2005-02-23 07:50 51°15.132 2°53.421 8.1 55 -0.6 101130 72
2005-02-23 07:51 51°15.326 2°53.271 7.4 52 -0.5 101140 72
2005-02-23 07:52 51°15.528 2°53.149 6.8 58 -0.5 101130 72
2005-02-23 07:53 51°15.731 2°53.015 8 52 -0.4 101130 73
2005-02-23 07:54 51°15.929 2°52.889 7.6 51 -0.3 101140 73
2005-02-23 07:55 51°16.131 2°52.775 7 55 -0.3 101130 72
2005-02-23 07:56 51°16.331 2°52.662 8.6 59 -0.3 101130 72
2005-02-23 07:57 51°16.533 2°52.546 9 51 -0.2 101130 72
2005-02-23 07:58 51°16.728 2°52.471 11.2 54 -0.2 101130 73
2005-02-23 07:59 51°16.928 2°52.407 9.3 49 -0.1 101120 67
2005-02-23 08:00 51°17.123 2°52.339 10 56 -999 101110 68
2005-02-23 08:01 51°17.321 2°52.268 9.3 53 -999 101120 65
2005-02-23 08:02 51°17.523 2°52.193 9 50 -999 101130 66
2005-02-23 08:03 51°17.723 2°52.214 12.3 34 -999 101120 67
2005-02-23 08:04 51°17.908 2°52.305 13.4 33 0.1 101120 68
2005-02-23 08:05 51°18.079 2°52.439 12.1 30 0.2 101120 70
2005-02-23 08:06 51°18.229 2°52.638 13.2 30 0.1 101130 67
2005-02-23 08:07 51°18.379 2°52.842 12.8 30 0.1 101120 67
2005-02-23 08:08 51°18.514 2°53.069 12.7 19 0.1 101120 66
2005-02-23 08:09 51°18.624 2°53.341 14.1 19 0.2 101110 68
2005-02-23 08:10 51°18.686 2°53.637 13.3 10 0.2 101130 68
2005-02-23 08:11 51°18.75 2°53.943 14.3 11 0.2 101130 68
2005-02-23 08:12 51°18.816 2°54.243 14 11 0.2 101140 65
2005-02-23 08:13 51°18.882 2°54.54 13.6 17 0.2 101140 67
2005-02-23 08:14 51°18.951 2°54.834 12.3 10 0.2 101140 67
2005-02-23 08:15 51°19.019 2°55.134 13.6 15 0.2 101130 68
2005-02-23 08:16 51°19.088 2°55.434 14 12 0.2 101150 68
2005-02-23 08:17 51°19.16 2°55.732 15.7 12 0.3 101140 68
2005-02-23 08:18 51°19.237 2°56.028 13.2 6 0.3 101150 67
2005-02-23 08:19 51°19.316 2°56.315 14.3 16 0.2 101160 67
2005-02-23 08:20 51°19.398 2°56.613 14.2 13 0.3 101150 67
2005-02-23 08:21 51°19.476 2°56.901 12.1 12 0.3 101150 66
2005-02-23 08:22 51°19.555 2°57.192 15.3 7 0.3 101150 66
2005-02-23 08:23 51°19.635 2°57.478 15.4 3 0.3 101150 63
2005-02-23 08:24 51°19.717 2°57.77 15.2 2 0.3 101160 65
2005-02-23 08:25 51°19.796 2°58.065 14.2 9 0.3 101150 66
2005-02-23 08:26 51°19.88 2°58.368 14.8 8 0.5 101150 68
2005-02-23 08:27 51°19.964 2°58.668 15 7 0.4 101140 62
2005-02-23 08:28 51°20.049 2°58.964 15.3 1 0.4 101150 62
2005-02-23 08:29 51°20.133 2°59.265 14.6 2 0.4 101150 63
2005-02-23 08:30 51°20.216 2°59.558 15.7 5 0.4 101160 63
2005-02-23 08:31 51°20.3 2°59.862 15.3 359 0.4 101150 63
2005-02-23 08:32 51°20.384 3°0.16 14.8 354 0.4 101170 63
2005-02-23 08:33 51°20.466 3°0.457 13.9 3 0.4 101160 66
2005-02-23 08:34 51°20.55 3°0.756 14 358 0.5 101160 67
2005-02-23 08:35 51°20.632 3°1.053 13.5 5 0.5 101160 68
2005-02-23 08:36 51°20.714 3°1.346 11.9 358 0.4 101150 66
2005-02-23 08:37 51°20.797 3°1.643 14.7 6 0.3 101160 67
2005-02-23 08:38 51°20.88 3°1.943 12.1 355 0.3 101140 66
2005-02-23 08:39 51°20.955 3°2.245 15.2 353 0.3 101150 65
2005-02-23 08:40 51°21.028 3°2.549 14.9 360 0.3 101160 63
2005-02-23 08:41 51°21.1 3°2.849 13.7 360 0.3 101150 63
2005-02-23 08:42 51°21.162 3°3.159 14 354 0.4 101150 63
2005-02-23 08:43 51°21.23 3°3.47 14.3 4 0.4 101160 64
2005-02-23 08:44 51°21.303 3°3.776 13.5 3 0.4 101150 64
2005-02-23 08:45 51°21.374 3°4.082 14.5 355 0.4 101160 64
2005-02-23 08:46 51°21.446 3°4.39 13.6 359 0.4 101150 64
2005-02-23 08:47 51°21.517 3°4.695 13.8 358 0.4 101150 63
2005-02-23 08:48 51°21.588 3°5.003 13.2 354 0.4 101150 64
2005-02-23 08:49 51°21.659 3°5.315 14.7 354 0.4 101160 64
2005-02-23 08:50 51°21.724 3°5.629 13.5 355 0.4 101150 64
2005-02-23 08:51 51°21.78 3°5.949 14.6 354 0.3 101160 65
2005-02-23 08:52 51°21.82 3°6.267 15 345 0.4 101150 66
2005-02-23 08:53 51°21.86 3°6.592 16.2 348 0.4 101150 65
2005-02-23 08:54 51°21.901 3°6.915 15 347 0.4 101160 66
2005-02-23 08:55 51°21.943 3°7.241 14.8 347 0.5 101160 67
2005-02-23 08:56 51°21.984 3°7.571 15.2 343 0.5 101150 66
2005-02-23 08:57 51°22.026 3°7.905 15.6 346 0.4 101150 66
2005-02-23 08:58 51°22.065 3°8.239 15.6 343 0.4 101160 65
2005-02-23 08:59 51°22.098 3°8.573 13.7 348 0.4 101160 66
2005-02-23 09:00 51°22.134 3°8.913 14.4 348 0.4 101160 67
2005-02-23 09:01 51°22.17 3°9.251 14.9 356 0.3 101160 67
2005-02-23 09:02 51°22.208 3°9.594 13.8 347 0.3 101160 67
2005-02-23 09:03 51°22.246 3°9.933 14 356 0.3 101150 67
2005-02-23 09:04 51°22.287 3°10.279 15.6 352 0.3 101170 68
2005-02-23 09:05 51°22.33 3°10.623 13.8 345 0.3 101160 67
2005-02-23 09:06 51°22.372 3°10.971 12.8 354 0.2 101160 66
2005-02-23 09:07 51°22.415 3°11.319 13.5 344 0.2 101160 69
2005-02-23 09:08 51°22.468 3°11.663 14.7 349 0.2 101160 68
2005-02-23 09:09 51°22.53 3°11.998 13.6 350 0.2 101160 68
2005-02-23 09:10 51°22.619 3°12.319 13.2 356 0.2 101170 67
2005-02-23 09:11 51°22.722 3°12.621 14.4 351 0.1 101170 68
2005-02-23 09:12 51°22.847 3°12.903 13.7 8 0.2 101170 69
2005-02-23 09:13 51°23.033 3°13.054 14 23 0.2 101180 69
2005-02-23 09:14 51°23.249 3°13.071 12.1 33 0.2 101160 69
2005-02-23 09:15 51°23.464 3°13.066 11 37 0.1 101160 69
2005-02-23 09:16 51°23.676 3°13.048 12.6 35 0.1 101160 69
2005-02-23 09:17 51°23.888 3°13.032 12.3 30 -999 101160 67
2005-02-23 09:18 51°24.105 3°13.016 14 28 0.1 101160 68
2005-02-23 09:19 51°24.324 3°13.001 13.2 30 0.1 101160 68
2005-02-23 09:20 51°24.547 3°12.985 13.7 30 0.2 101160 68
2005-02-23 09:21 51°24.766 3°12.976 13.5 42 0.1 101160 64
2005-02-23 09:22 51°24.959 3°12.849 11.1 53 0.1 101160 64
2005-02-23 09:23 51°25.136 3°12.674 10.3 50 0.1 101150 65
2005-02-23 09:24 51°25.198 3°12.379 4.5 80 0.1 101170 66
2005-02-23 09:25 51°25.157 3°12.036 3.9 83 0.1 101180 64
2005-02-23 09:26 51°25.111 3°11.682 4.9 81 0.2 101190 65
2005-02-23 09:27 51°25.07 3°11.329 4.1 93 0.2 101180 65
2005-02-23 09:28 51°25.03 3°10.974 5.7 102 0.2 101190 67
2005-02-23 09:29 51°24.991 3°10.62 5.2 96 0.2 101180 66
2005-02-23 09:30 51°24.95 3°10.273 4.1 88 0.3 101190 67
2005-02-23 09:31 51°24.911 3°9.92 4.5 100 0.3 101180 66
2005-02-23 09:32 51°24.871 3°9.573 4.1 87 0.4 101180 68
2005-02-23 09:33 51°24.833 3°9.218 3.2 93 0.3 101180 65
2005-02-23 09:34 51°24.815 3°8.862 3.6 80 0.3 101190 67
2005-02-23 09:35 51°24.812 3°8.504 7 84 0.4 101170 67
2005-02-23 09:36 51°24.839 3°8.158 6.3 78 0.4 101170 63
2005-02-23 09:37 51°24.879 3°7.811 6.7 74 0.3 101170 62
2005-02-23 09:38 51°25.004 3°7.549 10.3 63 0.4 101160 64
2005-02-23 09:39 51°25.194 3°7.471 13 50 0.4 101150 66
2005-02-23 09:40 51°25.389 3°7.394 11.8 38 0.4 101160 62
2005-02-23 09:41 51°25.583 3°7.318 13.2 46 0.4 101160 63
2005-02-23 09:42 51°25.777 3°7.243 12.6 49 0.4 101150 62
2005-02-23 09:43 51°25.965 3°7.252 12.8 20 0.4 101160 63
2005-02-23 09:44 51°26.09 3°7.492 13.2 10 0.5 101160 63
2005-02-23 09:45 51°26.19 3°7.782 12.1 6 0.6 101170 65
2005-02-23 09:46 51°26.29 3°8.074 13.4 7 0.6 101170 66
2005-02-23 09:47 51°26.394 3°8.372 13.2 18 0.7 101170 64
2005-02-23 09:48 51°26.497 3°8.664 12.4 19 0.7 101190 64
2005-02-23 09:49 51°26.66 3°8.859 11.5 36 0.8 101170 63
2005-02-23 09:50 51°26.855 3°8.838 10 53 0.7 101160 62
2005-02-23 09:51 51°27.039 3°8.696 9.1 55 0.5 101170 63
2005-02-23 09:52 51°27.219 3°8.54 9.1 50 0.6 101170 65
2005-02-23 09:53 51°27.4 3°8.384 10.7 48 0.6 101160 64
2005-02-23 09:54 51°27.581 3°8.231 9.4 54 0.6 101160 63
2005-02-23 09:55 51°27.759 3°8.083 10.2 48 0.6 101170 66
2005-02-23 09:56 51°27.939 3°7.937 11.1 49 0.6 101170 65
2005-02-23 09:57 51°28.122 3°7.784 11.1 40 0.6 101160 66
2005-02-23 09:58 51°28.305 3°7.632 10 45 0.7 101170 65
2005-02-23 09:59 51°28.488 3°7.481 9.8 47 0.7 101160 68
2005-02-23 10:00 51°28.671 3°7.329 10.5 43 0.7 101160 68
2005-02-23 10:01 51°28.856 3°7.172 12.2 45 0.7 101150 66
2005-02-23 10:02 51°29.04 3°7.019 11.3 42 0.7 101170 67
2005-02-23 10:03 51°29.224 3°6.862 13 54 0.7 101160 65
2005-02-23 10:04 51°29.406 3°6.707 11.6 43 0.7 101150 68
2005-02-23 10:05 51°29.592 3°6.541 11.1 37 0.7 101160 67
2005-02-23 10:06 51°29.776 3°6.376 10.5 47 0.8 101160 68
2005-02-23 10:07 51°29.959 3°6.207 10.7 50 0.7 101180 66
2005-02-23 10:08 51°30.147 3°6.039 11.3 51 0.7 101170 68
2005-02-23 10:09 51°30.336 3°5.867 12.4 41 0.7 101160 67
2005-02-23 10:10 51°30.524 3°5.692 10.7 39 0.8 101170 68
2005-02-23 10:11 51°30.707 3°5.523 10.4 53 0.8 101160 68
2005-02-23 10:12 51°30.891 3°5.364 13.1 57 0.8 101170 67
2005-02-23 10:13 51°31.076 3°5.203 11.5 46 0.8 101170 68
2005-02-23 10:14 51°31.268 3°5.037 11.7 58 0.8 101160 67
2005-02-23 10:15 51°31.457 3°4.87 11.5 54 0.8 101160 67
2005-02-23 10:16 51°31.649 3°4.705 10.6 49 0.8 101160 69
2005-02-23 10:17 51°31.842 3°4.543 9.9 61 0.8 101180 69
2005-02-23 10:18 51°32.032 3°4.383 10.5 50 0.8 101170 69
2005-02-23 10:19 51°32.226 3°4.22 10.1 51 0.9 101160 70
2005-02-23 10:20 51°32.419 3°4.062 10.7 43 0.9 101170 69
2005-02-23 10:21 51°32.616 3°3.901 11.2 51 0.9 101160 70
2005-02-23 10:22 51°32.812 3°3.759 9.7 50 1 101170 71
2005-02-23 10:23 51°32.997 3°3.617 9.5 56 1 101150 70
2005-02-23 10:24 51°33.166 3°3.428 8.5 61 0.9 101170 69
2005-02-23 10:25 51°33.217 3°3.107 2.9 96 1 101180 70
2005-02-23 10:26 51°33.156 3°2.759 1.9 44 1.2 101190 71
2005-02-23 10:27 51°33.071 3°2.416 2.7 70 1.2 101200 70
2005-02-23 10:28 51°32.991 3°2.069 2.4 20 1.3 101190 70
2005-02-23 10:29 51°32.916 3°1.72 2.2 36 1.3 101190 68
2005-02-23 10:30 51°32.842 3°1.372 3.1 59 1.2 101190 68
2005-02-23 10:31 51°32.743 3°1.041 2.2 52 1.3 101190 70
2005-02-23 10:32 51°32.641 3°0.709 2.9 69 1.3 101190 69
2005-02-23 10:33 51°32.535 3°0.379 2.8 59 1.3 101200 70
2005-02-23 10:34 51°32.436 3°0.036 2.6 90 1.2 101190 67
2005-02-23 10:35 51°32.33 2°59.692 2.3 74 1.2 101190 68
2005-02-23 10:36 51°32.223 2°59.354 2.4 84 1.3 101200 68
2005-02-23 10:37 51°32.113 2°59.025 1.9 356 1.3 101190 67
2005-02-23 10:38 51°32.01 2°58.69 1.6 61 1.4 101190 68
2005-02-23 10:39 51°31.903 2°58.358 1.7 26 1.4 101190 67
2005-02-23 10:40 51°31.8 2°58.025 3.1 73 1.4 101190 67
2005-02-23 10:41 51°31.699 2°57.698 2.6 61 1.4 101190 67
2005-02-23 10:42 51°31.591 2°57.382 1.7 2 1.3 101190 67
2005-02-23 10:43 51°31.487 2°57.068 2.5 37 1.4 101190 68
2005-02-23 10:44 51°31.383 2°56.747 2.5 23 1.4 101180 68
2005-02-23 10:45 51°31.278 2°56.428 3.2 55 1.4 101180 69
2005-02-23 10:46 51°31.17 2°56.113 2.7 42 1.4 101190 69
2005-02-23 10:47 51°31.065 2°55.806 1.4 1 1.4 101190 68
2005-02-23 10:48 51°30.959 2°55.484 2.4 351 1.3 101190 67
2005-02-23 10:49 51°30.87 2°55.157 1.9 53 1.5 101180 69
2005-02-23 10:50 51°30.817 2°54.819 3.3 76 1.5 101180 68
2005-02-23 10:51 51°30.79 2°54.472 4.2 62 1.5 101190 69
2005-02-23 10:52 51°30.738 2°54.132 4.4 72 1.5 101180 69
2005-02-23 10:53 51°30.685 2°53.792 4.4 65 1.4 101180 68
2005-02-23 10:54 51°30.644 2°53.452 5.4 63 1.4 101180 69
2005-02-23 10:55 51°30.77 2°53.232 11.3 46 1.3 101180 67
2005-02-23 10:56 51°30.948 2°53.379 13.8 15 1.4 101150 69
2005-02-23 10:57 51°31.111 2°53.606 12.2 11 1.4 101160 68
2005-02-23 10:58 51°31.258 2°53.867 13.2 10 1.5 101170 68
2005-02-23 10:59 51°31.396 2°54.14 12.5 8 1.5 101170 68
2005-02-23 11:00 51°31.538 2°54.425 14.5 5 1.5 101180 69
2005-02-23 11:01 51°31.675 2°54.702 13.7 10 1.6 101160 69
2005-02-23 11:02 51°31.815 2°54.982 14.5 12 1.6 101160 69
2005-02-23 11:03 51°31.959 2°55.266 12.7 14 1.6 101140 68
2005-02-23 11:04 51°32.101 2°55.547 13.5 11 1.6 101170 70
2005-02-23 11:05 51°32.24 2°55.828 12.4 12 1.6 101150 68
2005-02-23 11:06 51°32.375 2°56.11 12.9 6 1.6 101160 68
2005-02-23 11:07 51°32.514 2°56.393 11.3 10 1.6 101170 67
2005-02-23 11:08 51°32.651 2°56.672 11.7 15 1.7 101170 69
2005-02-23 11:09 51°32.787 2°56.954 12.7 2 1.6 101150 67
2005-02-23 11:10 51°32.921 2°57.231 13 11 1.6 101160 68
2005-02-23 11:11 51°33.06 2°57.516 12.7 9 1.6 101160 68
2005-02-23 11:12 51°33.2 2°57.81 12.9 8 1.6 101150 68
2005-02-23 11:13 51°33.336 2°58.099 11.1 13 1.6 101150 67
2005-02-23 11:14 51°33.473 2°58.391 13.8 5 1.6 101130 68
2005-02-23 11:15 51°33.61 2°58.683 11.7 6 1.7 101140 68
2005-02-23 11:16 51°33.742 2°58.963 11.5 11 1.7 101140 67
2005-02-23 11:17 51°33.883 2°59.263 13.5 2 1.7 101150 69
2005-02-23 11:18 51°34.02 2°59.554 14.3 8 1.7 101140 70
2005-02-23 11:19 51°34.155 2°59.844 14.1 14 1.7 101150 69
2005-02-23 11:20 51°34.294 3°0.14 13.9 10 1.6 101140 71
2005-02-23 11:21 51°34.432 3°0.436 12.8 14 1.6 101150 72
2005-02-23 11:22 51°34.567 3°0.73 14.4 18 1.7 101150 74
2005-02-23 11:23 51°34.71 3°1.02 14.5 20 1.6 101150 76
2005-02-23 11:24 51°34.905 3°1.131 12.4 49 1.4 101130 77
2005-02-23 11:25 51°35.097 3°0.999 10 59 1.2 101130 81
2005-02-23 11:26 51°35.278 3°0.817 9.3 49 1.1 101150 86
2005-02-23 11:27 51°35.448 3°0.605 7.7 57 1 101140 89
2005-02-23 11:28 51°35.493 3°0.286 3.1 60 1.1 101160 88
2005-02-23 11:29 51°35.389 2°59.988 2.4 29 1.1 101160 88
2005-02-23 11:30 51°35.253 2°59.714 2 346 1.2 101170 88
2005-02-23 11:31 51°35.121 2°59.44 2.1 85 1.3 101180 89
2005-02-23 11:32 51°34.99 2°59.164 2.8 77 1.3 101170 88
2005-02-23 11:33 51°34.863 2°58.885 1.9 39 1.2 101170 88
2005-02-23 11:34 51°34.735 2°58.614 2.2 62 1.1 101170 88
2005-02-23 11:35 51°34.609 2°58.336 3.2 76 1 101170 89
2005-02-23 11:36 51°34.483 2°58.051 2.5 63 1 101170 89
2005-02-23 11:37 51°34.359 2°57.771 3.1 105 0.9 101180 89
2005-02-23 11:38 51°34.234 2°57.499 1.9 87 0.9 101180 90
2005-02-23 11:39 51°34.102 2°57.221 1.6 88 0.9 101170 87
2005-02-23 11:40 51°33.982 2°56.943 3.9 108 0.8 101180 87
2005-02-23 11:41 51°33.857 2°56.674 5 113 0.9 101180 86
2005-02-23 11:42 51°33.728 2°56.4 5.2 112 0.9 101170 86
2005-02-23 11:43 51°33.606 2°56.117 5.6 121 0.8 101170 87
2005-02-23 11:44 51°33.482 2°55.832 5.4 100 0.6 101170 89
2005-02-23 11:45 51°33.369 2°55.55 4.1 97 0.6 101170 90
2005-02-23 11:46 51°33.248 2°55.272 3.4 75 0.4 101170 91
2005-02-23 11:47 51°33.132 2°54.999 2.7 67 0.3 101170 92
2005-02-23 11:48 51°33.007 2°54.725 1.8 75 0.1 101170 92
2005-02-23 11:49 51°32.887 2°54.453 2.8 47 -999 101170 94
2005-02-23 11:50 51°32.773 2°54.183 2.1 79 -999 101180 94
2005-02-23 11:51 51°32.656 2°53.913 2.5 55 -999 101170 95
2005-02-23 11:52 51°32.54 2°53.64 2.2 62 -999 101170 96
2005-02-23 11:53 51°32.42 2°53.366 3.1 68 -999 101170 96
2005-02-23 11:54 51°32.305 2°53.103 3.1 69 -0.1 101170 97
2005-02-23 11:55 51°32.187 2°52.828 3.1 50 -0.1 101180 97
2005-02-23 11:56 51°32.069 2°52.553 2.2 42 -999 101180 98
2005-02-23 11:57 51°31.953 2°52.276 3.3 49 -999 101170 98
2005-02-23 11:58 51°31.836 2°52 2.9 57 -999 101170 98
2005-02-23 11:59 51°31.719 2°51.733 2.3 54 -999 101170 98
2005-02-23 12:00 51°31.606 2°51.465 2.1 36 -999 101170 99
2005-02-23 12:01 51°31.493 2°51.192 2.6 35 -999 101170 99
2005-02-23 12:02 51°31.379 2°50.927 2.5 30 0.1 101170 99
2005-02-23 12:03 51°31.269 2°50.642 3.5 47 0.2 101160 99
2005-02-23 12:04 51°31.161 2°50.36 2.8 22 0.1 101160 99
2005-02-23 12:05 51°31.05 2°50.088 3.4 22 0.1 101160 99
2005-02-23 12:06 51°30.942 2°49.803 4.2 37 0.2 101150 100
2005-02-23 12:07 51°30.836 2°49.522 3.1 22 0.2 101160 100
2005-02-23 12:08 51°30.727 2°49.248 3.5 33 0.2 101160 100
2005-02-23 12:09 51°30.624 2°48.967 2.8 28 0.2 101170 100
2005-02-23 12:10 51°30.517 2°48.694 3.9 31 0.2 101160 100
2005-02-23 12:11 51°30.405 2°48.422 3.5 7 0.2 101150 100
2005-02-23 12:12 51°30.3 2°48.145 3.2 17 0.2 101160 100
2005-02-23 12:13 51°30.2 2°47.867 2.8 10 0.2 101160 100
2005-02-23 12:14 51°30.093 2°47.589 3.3 30 0.1 101160 100
2005-02-23 12:15 51°29.984 2°47.315 3.1 21 0.2 101160 100
2005-02-23 12:16 51°29.879 2°47.041 2.6 33 0.2 101160 100
2005-02-23 12:17 51°29.774 2°46.765 2.9 359 0.3 101150 100
2005-02-23 12:18 51°29.67 2°46.495 3.5 25 0.3 101150 100
2005-02-23 12:19 51°29.574 2°46.219 3.3 15 0.3 101150 100
2005-02-23 12:20 51°29.579 2°45.893 4.6 51 0.3 101150 100
2005-02-23 12:21 51°29.675 2°45.599 7.9 42 0.4 101130 100
2005-02-23 12:22 51°29.865 2°45.414 11.7 36 0.4 101120 100
2005-02-23 12:23 51°30.08 2°45.292 10.7 28 0.4 101120 100
2005-02-23 12:24 51°30.296 2°45.389 11.2 5 0.6 101130 100
2005-02-23 12:25 51°30.441 2°45.696 11.8 353 0.6 101120 100
2005-02-23 12:26 51°30.56 2°46.04 10.9 348 0.7 101120 100
2005-02-23 12:27 51°30.674 2°46.391 12 355 0.8 101140 100
2005-02-23 12:28 51°30.789 2°46.74 11 356 0.9 101120 100
2005-02-23 12:29 51°30.904 2°47.096 10.7 352 0.9 101130 99
2005-02-23 12:30 51°31.017 2°47.451 10.9 3 0.9 101120 99
2005-02-23 12:31 51°31.128 2°47.808 9 356 0.9 101130 99
2005-02-23 12:32 51°31.24 2°48.16 9.7 1 1 101120 98
2005-02-23 12:33 51°31.368 2°48.504 9.6 15 1 101110 98
2005-02-23 12:34 51°31.503 2°48.843 9.2 12 1 101130 98
2005-02-23 12:35 51°31.634 2°49.181 11.1 16 1 101120 98
2005-02-23 12:36 51°31.765 2°49.518 12.5 4 1 101110 98
2005-02-23 12:37 51°31.895 2°49.856 12.6 9 1 101110 98
2005-02-23 12:38 51°32.025 2°50.195 12.7 4 1 101120 98
2005-02-23 12:39 51°32.16 2°50.527 12.9 359 1.1 101120 99
2005-02-23 12:40 51°32.298 2°50.855 13.7 6 1 101110 99
2005-02-23 12:41 51°32.435 2°51.188 13.2 1 0.9 101120 99
2005-02-23 12:42 51°32.568 2°51.515 12.8 357 1 101120 99
2005-02-23 12:43 51°32.705 2°51.848 13.9 -999 1 101100 98
2005-02-23 12:44 51°32.838 2°52.173 15 351 0.9 101110 98
2005-02-23 12:45 51°32.976 2°52.507 13.9 351 0.9 101110 98
2005-02-23 12:46 51°33.11 2°52.835 14.6 349 0.9 101100 97
2005-02-23 12:47 51°33.248 2°53.171 13.1 353 0.9 101090 96
2005-02-23 12:48 51°33.383 2°53.501 13.8 358 1 101100 95
2005-02-23 12:49 51°33.517 2°53.831 14.7 349 1 101090 95
2005-02-23 12:50 51°33.545 2°54.2 13.4 315 1.2 101090 95
2005-02-23 12:51 51°33.414 2°54.509 9.5 312 1.2 101110 95
2005-02-23 12:52 51°33.232 2°54.712 6.4 298 1.2 101120 94
2005-02-23 12:53 51°33.038 2°54.889 5.5 298 1.2 101110 94
2005-02-23 12:54 51°32.843 2°55.061 6.2 309 1.2 101110 94
2005-02-23 12:55 51°32.652 2°55.238 6.9 303 1.2 101110 94
2005-02-23 12:56 51°32.46 2°55.407 7.2 297 1.2 101110 94
2005-02-23 12:57 51°32.276 2°55.608 6.8 302 1.3 101120 94
2005-02-23 12:58 51°32.091 2°55.822 7.3 291 1.4 101130 94
2005-02-23 12:59 51°31.909 2°56.021 7.1 312 1.5 101090 93
2005-02-23 13:00 51°31.724 2°56.216 8 322 1.5 101100 93
2005-02-23 13:01 51°31.541 2°56.416 10.4 318 1.4 101090 91
2005-02-23 13:02 51°31.363 2°56.621 10.2 39 1.4 101110 88
2005-02-23 13:03 51°31.179 2°56.832 10.3 317 1.4 101100 87
2005-02-23 13:04 51°30.998 2°57.041 8.8 313 1.4 101100 85
2005-02-23 13:05 51°30.82 2°57.24 9.8 303 1.5 101090 85
2005-02-23 13:06 51°30.623 2°57.352 8.7 303 1.5 101100 83
2005-02-23 13:07 51°30.424 2°57.445 5.4 290 1.6 101110 82
2005-02-23 13:08 51°30.216 2°57.442 6.4 300 1.6 101110 81
2005-02-23 13:09 51°30.015 2°57.379 6.1 291 1.6 101110 80
2005-02-23 13:10 51°29.817 2°57.304 2.9 289 1.7 101100 79
2005-02-23 13:11 51°29.617 2°57.208 4 322 1.7 101110 79
2005-02-23 13:12 51°29.415 2°57.118 4.7 308 1.7 101110 78
2005-02-23 13:13 51°29.215 2°57.032 5.3 302 1.8 101110 78
2005-02-23 13:14 51°29.018 2°56.949 4.8 314 1.7 101100 77
2005-02-23 13:15 51°28.819 2°56.866 4.8 307 1.7 101110 76
2005-02-23 13:16 51°28.627 2°56.787 4.3 288 1.7 101110 75
2005-02-23 13:17 51°28.426 2°56.713 4.8 289 1.8 101110 76
2005-02-23 13:18 51°28.231 2°56.632 4.8 291 1.9 101110 76
2005-02-23 13:19 51°28.031 2°56.57 5.7 313 2 101100 78
2005-02-23 13:20 51°27.834 2°56.554 6.8 329 2 101100 78
2005-02-23 13:21 51°27.629 2°56.5 4.9 337 1.9 101100 78
2005-02-23 13:22 51°27.432 2°56.43 4.7 337 1.9 101110 79
2005-02-23 13:23 51°27.243 2°56.36 4.6 313 1.8 101110 80
2005-02-23 13:24 51°27.046 2°56.288 2.9 309 1.7 101100 80
2005-02-23 13:25 51°26.848 2°56.209 5.2 325 1.7 101110 80
2005-02-23 13:26 51°26.654 2°56.132 3.6 334 1.7 101110 80
2005-02-23 13:27 51°26.465 2°56.054 5.7 328 1.7 101110 80
2005-02-23 13:28 51°26.259 2°55.98 5.1 348 1.7 101100 81
2005-02-23 13:29 51°26.061 2°55.899 6.3 342 1.7 101100 82
2005-02-23 13:30 51°25.87 2°55.823 5.4 339 1.6 101110 82
2005-02-23 13:31 51°25.663 2°55.737 6.7 345 1.6 101100 83
2005-02-23 13:32 51°25.467 2°55.652 5.7 345 1.5 101090 83
2005-02-23 13:33 51°25.268 2°55.57 5.2 339 1.3 101110 84
2005-02-23 13:34 51°25.069 2°55.487 5.4 346 1.2 101110 85
2005-02-23 13:35 51°24.873 2°55.408 5.6 353 1.1 101090 86
2005-02-23 13:36 51°24.665 2°55.33 4.3 356 1 101110 87
2005-02-23 13:37 51°24.466 2°55.252 4.9 352 1 101100 88
2005-02-23 13:38 51°24.268 2°55.173 4.7 346 1 101110 89
2005-02-23 13:39 51°24.076 2°55.074 3.5 2 0.9 101100 89
2005-02-23 13:40 51°23.899 2°54.935 3.5 351 0.9 101110 89
2005-02-23 13:41 51°23.734 2°54.761 4 357 0.9 101100 90
2005-02-23 13:42 51°23.558 2°54.617 3.8 350 0.8 101100 90
2005-02-23 13:43 51°23.376 2°54.491 3.9 342 0.9 101100 91
2005-02-23 13:44 51°23.202 2°54.364 4.5 333 0.8 101100 91
2005-02-23 13:45 51°23.018 2°54.233 3.3 331 0.8 101110 91
2005-02-23 13:46 51°22.838 2°54.106 3.1 345 0.8 101120 91
2005-02-23 13:47 51°22.65 2°53.991 3.4 341 0.8 101120 91
2005-02-23 13:48 51°22.457 2°53.895 3 4 0.8 101100 91
2005-02-23 13:49 51°22.262 2°53.798 4.6 346 0.8 101100 92
2005-02-23 13:50 51°22.068 2°53.702 3.5 344 0.8 101110 92
2005-02-23 13:51 51°21.874 2°53.599 4.5 347 0.8 101090 92
2005-02-23 13:52 51°21.675 2°53.501 3.5 345 0.8 101100 93
2005-02-23 13:53 51°21.481 2°53.403 4 354 0.8 101100 92
2005-02-23 13:54 51°21.276 2°53.323 4.7 342 0.8 101110 92
2005-02-23 13:55 51°21.068 2°53.252 4.7 331 0.8 101100 93
2005-02-23 13:56 51°20.864 2°53.176 3.6 339 0.8 101110 93
2005-02-23 13:57 51°20.655 2°53.1 4.7 335 0.9 101110 93
2005-02-23 13:58 51°20.452 2°53.019 4.4 354 0.9 101100 93
2005-02-23 13:59 51°20.251 2°52.941 4.5 357 0.9 101110 93
2005-02-23 14:00 51°20.054 2°52.869 3.9 354 0.8 101100 93
2005-02-23 14:01 51°19.858 2°52.796 4.2 356 0.7 101100 93
2005-02-23 14:02 51°19.662 2°52.725 4 355 0.7 101100 93
2005-02-23 14:03 51°19.462 2°52.642 4.7 7 0.7 101100 93
2005-02-23 14:04 51°19.264 2°52.558 4.5 5 0.6 101100 93
2005-02-23 14:05 51°19.061 2°52.479 4.1 9 0.6 101100 94
2005-02-23 14:06 51°18.857 2°52.414 3.7 8 0.6 101110 94
2005-02-23 14:07 51°18.653 2°52.353 4.4 20 0.7 101100 94
2005-02-23 14:08 51°18.442 2°52.291 4.3 351 0.7 101100 95
2005-02-23 14:09 51°18.238 2°52.235 4.9 2 0.8 101100 95
2005-02-23 14:10 51°18.031 2°52.187 4.1 9 0.8 101100 95
2005-02-23 14:11 51°17.816 2°52.176 3.7 7 0.7 101110 95
2005-02-23 14:12 51°17.603 2°52.171 5 352 0.7 101110 95
2005-02-23 14:13 51°17.39 2°52.152 5.5 358 0.7 101100 95
2005-02-23 14:14 51°17.177 2°52.157 5.9 354 0.7 101100 95
2005-02-23 14:15 51°16.962 2°52.191 5.8 4 0.7 101090 95
2005-02-23 14:16 51°16.758 2°52.299 5.8 358 0.7 101100 95
2005-02-23 14:17 51°16.566 2°52.454 6.9 359 0.7 101100 95
2005-02-23 14:18 51°16.37 2°52.629 6.1 352 0.7 101100 95
2005-02-23 14:19 51°16.179 2°52.819 7 359 0.6 101090 95
2005-02-23 14:20 51°15.994 2°53.015 6.4 346 0.6 101090 95
2005-02-23 14:21 51°15.806 2°53.202 6.9 345 0.6 101100 95
2005-02-23 14:22 51°15.621 2°53.399 7.7 352 0.6 101090 95
2005-02-23 14:23 51°15.432 2°53.591 6 357 0.6 101100 95
2005-02-23 14:24 51°15.244 2°53.781 6.1 354 0.6 101100 95
2005-02-23 14:25 51°15.061 2°53.973 5.9 353 0.5 101100 95
2005-02-23 14:26 51°14.877 2°54.181 6.3 343 0.5 101090 96
2005-02-23 14:27 51°14.735 2°54.379 4.7 347 0.5 101090 96
2005-02-23 14:28 51°14.682 2°54.543 4.3 9 0.5 101110 96
2005-02-23 14:29 51°14.734 2°54.648 2.5 40 0.5 101120 96
2005-02-23 14:30 51°14.779 2°54.7 2.5 35 0.5 101110 97
2005-02-23 14:31 51°14.866 2°54.673 3.9 32 0.4 101110 97
2005-02-23 14:32 51°14.811 2°54.536 3.7 351 0.4 101110 97
2005-02-23 14:33 51°14.652 2°54.668 6.1 353 0.4 101110 97
2005-02-23 14:34 51°14.49 2°54.843 6.1 348 0.4 101110 98
2005-02-23 14:35 51°14.361 2°55.046 6 4 0.3 101110 98
2005-02-23 14:36 51°14.27 2°55.24 5 343 0.2 101120 98
2005-02-23 14:37 51°14.168 2°55.38 5 334 0.3 101110 98
2005-02-23 14:38 51°14.048 2°55.47 4 333 0.3 101120 98
2005-02-23 14:39 51°13.924 2°55.557 3 330 0.2 101120 98
2005-02-23 14:40 51°13.802 2°55.654 3.7 339 0.3 101120 99
2005-02-23 14:41 51°13.711 2°55.792 2.2 337 0.3 101120 99
2005-02-23 14:42 51°13.658 2°55.913 1.3 228 0.3 101120 99
2005-02-23 14:43 51°13.623 2°56.013 2.2 312 0.4 101120 99
2005-02-23 14:44 51°13.601 2°56.084 2.4 289 0.5 101120 99
2005-02-23 14:45 51°13.595 2°56.101 1.1 252 0.5 101120 99